STARLINK-35121, 65737

Orbit data source: Space-Track

STARLINK-35121, 65737 is a payload satellite owned by SpaceX/Seattle (US) in LEO that was launched on Thu, 25 Sep 2025 UTC via an FALCON 9 launch vehicle from the Air Force Eastern Test Range (AFETR). Payload-class satellites include a variety of spacecraft equipped with specific instruments for various scientific and technological missions. These include communications satellites like Starlink; space stations such as the ISS; scientific satellites like the Hubble; Earth observation satellites from companies like Planet Labs, Umbra, and HawkEye 360; GPS; miniature CubeSats for education and research; and military/defense satellites.

Loading next visibility...
Identifier
65737, 2025-216D
Orbit
LEO
Country
Flag of USUS
Related business
Manufacturer
SpaceX/Seattle
Mission
Operational Commercial Communications
Bus & Motor
STARLINK V2MO, Unknown motor
Mass
575 kg wet, ~530 kg dry
Launch date (UTC)
2025-09-25 (9 months ago)
Launch vehicle
FALCON 9
Launch site
Air Force Eastern Test Range (AFETR)
Object type
Payload
Rocket body
Debris
Shape & HBR
Box + 2 Pan, 17.7 m
Radar Cross Section
36.964 m², Large (>1 m²)

Expand to show TLE details & history
Last TLE update: 1 day ago

TLE from 1 day ago
0 STARLINK-35121
1 65737U 25216D   26170.40558979  .00017038  00000-0  58621-3 0  9991
2 65737  53.1587 220.6502 0001368 101.8357 258.2797 15.30191146 42118
Epoch: 2026-06-19T09:44Z
TLE epoch observation values (Epoch: 2026-06-19T09:44:02.957Z)
Latitude
-0.00006°
Longitude
167.0028°
Altitude
476.332 km
Speed
7.629 km/s
True Right ascension
14h 42m 36s
True Declination
0° 00' 00"
Sunlit
Object was in full shadow at epoch
Visualization orbit readout
Latitude
Unknown
Longitude
Unknown
Altitude
Unknown
Speed
Unknown
Apparent Right ascension
Unknown
Apparent Declination
Unknown
Sunlit
N/A
Visualization observer readout
Local Sidereal Time
07:12:15
Azimuth
Unknown
Elevation
Unknown
Doppler factor
Unknown
Orbital elements
Apogee altitude
476.436 km
Perigee altitude
474.561 km
Semi-major axis
6,853.635 km
Eccentricity
0.00014
Inclination
53.1587°
RAAN
220.6502°
Arg. of periapsis
101.8357°
True anomaly
258.26435°
Mean anomaly
258.2797°
Eccentric anomaly
258.27203°
Mean motion
3.82527 °/min
Orbital period
94.11 mins
BSTAR
0.00058621
Loading maneuver chart data...
Computing Atmospheric mass density...
Loading historical data...
Loading historical data...
Loading historical data...
Loading historical data...
Loading historical data...
Loading historical data...
Loading historical data...

Documentation

Showing up to 5 results
|